Location: *
(44.1392°N, 4.8079°E)
Time: 06:52:51
(UTC+00:00)

CZ-2C R/B - Pass Details

Date: 21 June 2021
Orbit: 667 x 785 km, 98.2° (Epoch: 02 August)

Event Time Altitude Azimuth Distance (km) Brightness Sun altitude
Rises 02:58:57 0° 19° (NNE) 3,200 7.0 -8.9°
Reaches altitude 10° 03:01:23 10° 26° (NNE) 2,253 6.3 -8.6°
Maximum altitude 03:06:06 44° 98° (E) 992 3.5 -8.0°
Drops below altitude 10° 03:10:39 10° 171° (S) 2,164 4.5 -7.4°
Sets 03:12:56 0° 178° (S) 3,060 5.2 -7.1°
